Location: Bittkow
(50.3000°N, 19.0000°E)
Time: 03:54:10
(UTC+00:00)

Cosmos 2263 Rocket - Pass Details

Date: 19 September 2020
Orbit: 822 x 849 km, 71.0° (Epoch: 18 October)

Event Time Altitude Azimuth Distance (km) Brightness Sun altitude
Rises 00:53:44 0° 333° (NNW) 3,394 5.6 -30.7°
Reaches altitude 10° 00:56:39 10° 347° (NNW) 2,461 5.0 -30.4°
Maximum altitude 01:01:13 25° 41° (NE) 1,661 4.3 -30.0°
Drops below altitude 10° 01:05:47 10° 95° (E) 2,466 5.0 -29.5°
Sets 01:08:42 0° 109° (ESE) 3,402 5.7 -29.1°
